Wright-Patt AFB, OH

1:52 AM EST on December 17, 2017 (GMT -0500)
Wright-Patterson Air Force Base

Weather History for KFFO - October, 2012

Change the Weather History Date:

Wednesday, October 31, 2012

  Actual Average Record
Temperature  
Mean Temperature 40 °F -  
Max Temperature 41 °F 57 °F 75 °F (1999)
Min Temperature 38 °F 38 °F 30 °F (2008)
Degree Days  
Heating Degree Days 26    
Moisture  
Dew Point 36 °F    
Average Humidity 86    
Maximum Humidity 93    
Minimum Humidity 80    
Precipitation  
Precipitation 0.03 in - - ()
Sea Level Pressure  
Sea Level Pressure 29.70 in    
Wind  
Wind Speed 12 mph (West)    
Max Wind Speed 17 mph    
Max Gust Speed 25 mph    
Visibility 8 miles    
Events Rain    
Averages and records for this station are not official NWS values.
T = Trace of Precipitation, MM = Missing Value Source: NWS Daily Summary

Daily Weather History Graph

Daily Weather History Graph

Search for Another Location

Airport or City:

Trip Planner

Search our weather history database for the weather conditions in past years. The results will help you decide how hot, cold, wet, or windy it might be!

Date:

Astronomy

Oct. 31, 2012 Rise Set
Actual Time 8:04 AM EDT 6:34 PM EDT
Civil Twilight 7:36 AM EDT 7:02 PM EDT
Nautical Twilight 7:04 AM EDT 7:34 PM EDT
Astronomical Twilight 6:33 AM EDT 8:05 PM EDT
Moon 7:45 PM EDT (10/31) 9:44 AM EDT (10/31)
Length of Visible Light 11h 26m
Length of Day
10h 30m
Full, 97% of the Moon is Illuminated
Oct 31
Full
Nov 6
Last Quarter
Nov 13
New
Nov 20
First Quarter
Nov 28
Full

Hourly Weather History & Observations

Time (EDT) Temp. Windchill Dew Point Humidity Pressure Visibility Wind Dir Wind Speed Gust Speed Precip Events Conditions
12:55 AM 39.2 °F 31.6 °F 36.0 °F 88% 29.62 in 10.0 mi WNW 12.7 mph - N/A   Overcast
1:11 AM 39.2 °F 32.0 °F 35.6 °F 87% 29.62 in 10.0 mi WNW 11.5 mph - N/A   Overcast
1:25 AM 39.2 °F 31.6 °F 35.6 °F 87% 29.62 in 10.0 mi West 12.7 mph 18.4 mph N/A   Overcast
1:55 AM 39.0 °F 32.3 °F 35.8 °F 88% 29.61 in 10.0 mi West 10.4 mph 19.6 mph N/A   Overcast
2:17 AM 39.2 °F 32.5 °F 35.6 °F 87% 29.62 in 10.0 mi WNW 10.4 mph 17.3 mph N/A   Overcast
2:34 AM 39.2 °F 32.5 °F 35.6 °F 87% 29.62 in 10.0 mi WNW 10.4 mph - N/A   Overcast
2:55 AM 39.0 °F 31.8 °F 35.2 °F 86% 29.62 in 10.0 mi West 11.5 mph - N/A   Overcast
3:42 AM 39.2 °F 32.0 °F 35.6 °F 87% 29.63 in 10.0 mi WNW 11.5 mph - N/A   Light Drizzle
3:55 AM 39.0 °F 31.4 °F 34.5 °F 84% 29.63 in 10.0 mi West 12.7 mph 18.4 mph 0.00 in   Overcast
4:55 AM 39.2 °F 32.0 °F 34.2 °F 82% 29.63 in 10.0 mi West 11.5 mph - N/A   Overcast
5:19 AM 39.2 °F 32.5 °F 33.8 °F 81% 29.64 in 10.0 mi West 10.4 mph - N/A   Overcast
5:20 AM 39.2 °F 32.5 °F 33.8 °F 81% 29.64 in 10.0 mi WNW 10.4 mph - N/A   Light Drizzle
5:43 AM 39.2 °F 32.0 °F 35.6 °F 87% 29.65 in 10.0 mi West 11.5 mph - N/A   Light Drizzle
5:55 AM 38.7 °F 32.4 °F 35.2 °F 87% 29.65 in 7.0 mi West 9.2 mph 18.4 mph 0.00 in   Light Drizzle
6:17 AM 39.2 °F 32.0 °F 35.6 °F 87% 29.65 in 10.0 mi West 11.5 mph - N/A   Overcast
6:55 AM 38.5 °F 30.7 °F 35.4 °F 89% 29.65 in 10.0 mi West 12.7 mph - 0.00 in   Overcast
7:05 AM 39.2 °F 33.0 °F 35.6 °F 87% 29.66 in 6.0 mi West 9.2 mph - N/A   Light Drizzle
7:45 AM 39.2 °F 33.0 °F 35.6 °F 87% 29.67 in 7.0 mi West 9.2 mph - N/A   Light Drizzle
7:55 AM 38.5 °F 31.1 °F 36.0 °F 91% 29.67 in 7.0 mi WNW 11.5 mph - 0.01 in   Light Drizzle
8:15 AM 39.2 °F 32.0 °F 35.6 °F 87% 29.67 in 7.0 mi West 11.5 mph - N/A   Light Drizzle
8:19 AM 39.2 °F 31.6 °F 35.6 °F 87% 29.67 in 9.0 mi West 12.7 mph - N/A   Overcast
8:23 AM 39.2 °F 32.5 °F 35.6 °F 87% 29.67 in 10.0 mi WNW 10.4 mph - N/A   Overcast
8:51 AM 39.2 °F 34.2 °F 35.6 °F 87% 29.68 in 4.0 mi West 6.9 mph - N/A   Light Drizzle
8:55 AM 39.0 °F 32.8 °F 36.0 °F 89% 29.68 in 4.0 mi West 9.2 mph - 0.00 in   Light Drizzle
9:12 AM 39.2 °F 32.0 °F 35.6 °F 87% 29.68 in 6.0 mi West 11.5 mph - N/A   Overcast
9:20 AM 39.2 °F 30.8 °F 35.6 °F 87% 29.68 in 6.0 mi West 15.0 mph - N/A   Light Drizzle
9:36 AM 39.2 °F 32.0 °F 35.6 °F 87% 29.68 in 10.0 mi West 11.5 mph - N/A   Light Drizzle
9:44 AM 39.2 °F 33.0 °F 35.6 °F 87% 29.68 in 10.0 mi WNW 9.2 mph 21.9 mph N/A   Mostly Cloudy
9:55 AM 39.7 °F 32.7 °F 35.6 °F 85% 29.68 in 10.0 mi West 11.5 mph - 0.00 in   Mostly Cloudy
10:22 AM 39.2 °F 33.0 °F 35.6 °F 87% 29.69 in 10.0 mi WNW 9.2 mph - N/A   Overcast
10:55 AM 40.5 °F 33.6 °F 35.8 °F 83% 29.69 in 7.0 mi WNW 11.5 mph - 0.00 in   Overcast
10:58 AM 41.0 °F 32.8 °F 35.6 °F 81% 29.69 in 5.0 mi WNW 16.1 mph - N/A   Light Drizzle
11:10 AM 41.0 °F 33.1 °F 35.6 °F 81% 29.69 in 3.0 mi WNW 15.0 mph 19.6 mph N/A   Light Drizzle
11:17 AM 41.0 °F 34.3 °F 35.6 °F 81% 29.69 in 6.0 mi West 11.5 mph 19.6 mph N/A   Overcast
11:23 AM 41.0 °F 33.5 °F 35.6 °F 81% 29.69 in 4.0 mi West 13.8 mph - N/A   Light Drizzle
11:41 AM 41.0 °F 33.5 °F 35.6 °F 81% 29.69 in 3.0 mi West 13.8 mph 20.7 mph N/A   Light Drizzle
11:55 AM 41.0 °F 32.8 °F 36.7 °F 85% 29.70 in 7.0 mi West 16.1 mph 19.6 mph 0.00 in   Light Drizzle
12:08 PM 41.0 °F 33.5 °F 35.6 °F 81% 29.70 in 10.0 mi WNW 13.8 mph - N/A   Overcast
12:18 PM 41.0 °F 33.5 °F 37.4 °F 87% 29.70 in 3.0 mi West 13.8 mph - N/A   Light Drizzle
12:34 PM 41.0 °F 33.5 °F 37.4 °F 87% 29.70 in 1.0 mi WNW 13.8 mph - N/A   Light Drizzle
12:55 PM 40.1 °F 32.0 °F 36.9 °F 88% 29.71 in 1.2 mi WSW 15.0 mph 21.9 mph 0.01 in   Light Drizzle
1:19 PM 41.0 °F 34.3 °F 37.4 °F 87% 29.71 in 2.0 mi West 11.5 mph - N/A   Light Drizzle
1:30 PM 39.2 °F 31.6 °F 37.4 °F 93% 29.71 in 8.0 mi West 12.7 mph - N/A   Light Drizzle
1:33 PM 39.2 °F 30.8 °F 37.4 °F 93% 29.71 in 6.0 mi West 15.0 mph 19.6 mph N/A   Light Drizzle
1:47 PM 39.2 °F 31.2 °F 35.6 °F 87% 29.71 in 5.0 mi West 13.8 mph - N/A   Light Drizzle
1:55 PM 39.7 °F 32.3 °F 36.5 °F 88% 29.71 in 5.0 mi West 12.7 mph - 0.00 in   Light Drizzle
2:02 PM 39.2 °F 30.8 °F 35.6 °F 87% 29.71 in 7.0 mi West 15.0 mph - N/A   Light Drizzle
2:21 PM 39.2 °F 31.6 °F 35.6 °F 87% 29.72 in 10.0 mi West 12.7 mph - N/A   Overcast
2:34 PM 39.2 °F 31.6 °F 35.6 °F 87% 29.72 in 10.0 mi West 12.7 mph - N/A   Overcast
2:45 PM 39.2 °F 32.0 °F 35.6 °F 87% 29.72 in 10.0 mi West 11.5 mph 19.6 mph N/A   Overcast
2:55 PM 40.1 °F 31.3 °F 35.2 °F 83% 29.71 in 10.0 mi West 17.3 mph 20.7 mph 0.00 in   Overcast
3:54 PM 41.0 °F 33.1 °F 35.6 °F 81% 29.73 in 4.0 mi West 15.0 mph 21.9 mph N/A   Light Drizzle
3:55 PM 40.5 °F 33.2 °F 36.0 °F 84% 29.73 in 10.0 mi West 12.7 mph 21.9 mph 0.00 in   Overcast
4:00 PM 39.2 °F 30.5 °F 35.6 °F 87% 29.73 in 3.0 mi West 16.1 mph 21.9 mph N/A   Light Drizzle
4:20 PM 39.2 °F 31.2 °F 37.4 °F 93% 29.73 in 2.8 mi West 13.8 mph - N/A   Light Drizzle
4:55 PM 39.7 °F 32.7 °F 36.7 °F 89% 29.74 in 2.8 mi West 11.5 mph - 0.00 in   Light Drizzle
5:08 PM 39.2 °F 30.8 °F 37.4 °F 93% 29.75 in 2.0 mi West 15.0 mph - N/A   Light Drizzle
5:29 PM 39.2 °F 33.0 °F 37.4 °F 93% 29.75 in 4.0 mi West 9.2 mph - N/A   Light Drizzle
5:44 PM 39.2 °F 32.0 °F 35.6 °F 87% 29.75 in 7.0 mi WSW 11.5 mph - N/A   Overcast
5:55 PM 39.6 °F 31.0 °F 36.3 °F 88% 29.76 in 7.0 mi West 16.1 mph 21.9 mph 0.00 in   Light Drizzle
6:14 PM 39.2 °F 30.8 °F 35.6 °F 87% 29.76 in 6.0 mi West 15.0 mph - N/A   Light Drizzle
6:38 PM 39.2 °F 30.2 °F 35.6 °F 87% 29.77 in 6.0 mi West 17.3 mph 25.3 mph N/A Rain Light Rain
6:55 PM 39.0 °F 31.4 °F 35.8 °F 88% 29.78 in 7.0 mi WSW 12.7 mph - 0.01 in   Light Drizzle
7:27 PM 39.2 °F 32.0 °F 35.6 °F 87% 29.78 in 10.0 mi WSW 11.5 mph - N/A   Light Drizzle
7:55 PM 38.8 °F 30.8 °F 35.1 °F 86% 29.78 in 10.0 mi WSW 13.8 mph - 0.00 in   Light Drizzle
8:08 PM 39.2 °F 31.2 °F 35.6 °F 87% 29.79 in 10.0 mi WSW 13.8 mph - N/A   Overcast
8:55 PM 39.0 °F 32.3 °F 34.7 °F 84% 29.79 in 10.0 mi WSW 10.4 mph - 0.00 in   Light Drizzle
9:55 PM 39.6 °F 32.5 °F 34.2 °F 81% 29.80 in 10.0 mi West 11.5 mph 20.7 mph N/A   Overcast
10:55 PM 39.6 °F 32.5 °F 33.8 °F 80% 29.80 in 10.0 mi West 11.5 mph - N/A   Overcast
11:05 PM 39.2 °F 32.0 °F 33.8 °F 81% 29.80 in 10.0 mi West 11.5 mph - N/A   Light Drizzle
11:20 PM 39.2 °F 32.0 °F 33.8 °F 81% 29.81 in 10.0 mi West 11.5 mph - N/A   Light Drizzle
11:23 PM 39.2 °F 32.5 °F 33.8 °F 81% 29.81 in 10.0 mi West 10.4 mph - N/A   Overcast
11:34 PM 39.2 °F 32.5 °F 33.8 °F 81% 29.80 in 10.0 mi West 10.4 mph - N/A   Light Drizzle
11:55 PM 39.2 °F 32.5 °F 34.2 °F 82% 29.80 in 10.0 mi West 10.4 mph - 0.00 in   Overcast